Location: Goettingen
(51.5300°N, 9.9433°E)
Time: 07:08:21
(UTC+02:00)

ISS - Pass Details

Date: 25 May 2018
Orbit: 402 x 407 km, 51.6° (Epoch: 21 May)

Event Time Altitude Azimuth Distance (km) Brightness Sun altitude
Rises 23:35:11 0° 269° (W) 2,320 0.3 -14.0°
Reaches altitude 10° 23:37:15 10° 269° (W) 1,460 -0.7 -14.2°
Maximum altitude 23:40:32 86° 357° (N) 410 -3.9 -14.4°
Drops below altitude 10° 23:43:49 10° 88° (E) 1,459 -1.2 -14.6°
Enters shadow 23:44:34 - 89° (E) 1,767 -0.8 -14.6°
